Regional Weather Roundup
Issued by NWS

Home | Current Version | Previous Version | Text Only | Print | Product List | Glossary Off
Versions: 1 2 3 4 5 6 7 8 9 10 11 12 13 14 15 16 17 18 19 20 21 22 23 24 25 26 27 28

000
ASUS45 KSLC 161710
RWRUT

UTAH REGIONAL WEATHER ROUNDUP
NATIONAL WEATHER SERVICE SALT LAKE CITY UT
1000 AM MST THU NOV 16 2017

UTZ001>011-023>025-161800-

NORTHERN UTAH

CITY           SKY/WX    TMP DP  RH WIND       PRES   REMARKS
BRIGHAM CITY   CLOUDY    53  27  36 CALM      29.82R
DUGWAY         PTSUNNY   57  25  29 S18G28    29.83S
HILL AFB       CLOUDY    57  26  30 S23       29.80S
LOGAN          LGT RAIN  55  33  43 S14       29.82R
OGDEN          CLOUDY    54  27  35 W3        29.80R
SALT LAKE CITY CLOUDY    62  27  26 S26G38    29.80R
TOOELE VALLEY  PTSUNNY   61  30  31 S28G39    29.80R
WENDOVER       PTSUNNY   52  28  39 NE7       29.81R
HEBER CITY     CLOUDY    54  23  30 S3        29.89F
WEST JORDAN    CLOUDY    58  30  34 S29G37    29.84S

$$

UTZ011>015-024>027-161800-

CENTRAL/NORTHEAST UTAH

CITY           SKY/WX    TMP DP  RH WIND       PRES   REMARKS
PROVO AIRPORT  CLOUDY    60  27  28 S15G24    29.89F
MOAB/CANYONLAN PTSUNNY   55  18  23 E5        30.00F
PRICE          PTSUNNY   44  19  36 CALM      30.03S
RICHFIELD      SUNNY     57  28  33 SW7       29.99S
ROOSEVELT      CLOUDY    37  21  52 CALM      30.02F
VERNAL         SUNNY     41  20  43 CALM      30.00F

$$

UTZ013>016-019>022-027-161800-

SOUTHERN UTAH

CITY           SKY/WX    TMP DP  RH WIND       PRES   REMARKS
BRYCE CANYON   PTSUNNY   45  23  42 SE17      30.13F
CEDAR CITY     PTSUNNY   59  32  36 SW24G32   30.00S
MILFORD        CLOUDY    56  27  32 SW24G32   29.96S
ST GEORGE      CLOUDY    49  24  37 S3        30.03R
HANKSVILLE     PTSUNNY   41  18  38 CALM      30.04S
KANAB          MOSUNNY   50  23  34 N5        30.13S
BLANDING         N/A     48  17  28 SE6       30.23S

$$

REGIONAL REPORTS     COLORADO/ARIZONA

CITY           SKY/WX    TMP DP  RH WIND       PRES   REMARKS
CRAIG, CO      CLOUDY    35  23  61 CALM      30.00F
GRAND JUNCTION CLOUDY    47  24  40 CALM      30.04S
RIFLE, CO      CLOUDY    40  21  46 CALM      30.07F
MONTROSE, CO   CLOUDY    53  20  27 CALM      30.11S
CORTEZ, CO     SUNNY     54  18  24 CALM      30.16F
COLORADO CITY    N/A     59  27  29 SE10      30.11S
PAGE, AZ       PTSUNNY   49  24  37 CALM      30.08S
GRAND CANYON   PTSUNNY   54  24  31 SW8       30.21R
KINGMAN, AZ    MOSUNNY   67  26  21 W3        30.09R
FLAGSTAFF, AZ  SUNNY     56  20  24 SW14      30.22R

$$

REGIONAL REPORTS    NEVADA/IDAHO/WYOMING

CITY           SKY/WX    TMP DP  RH WIND       PRES   REMARKS
LAS VEGAS, NV  PTSUNNY   72  41  32 S12G18    29.92S
ELY, NY        MOSUNNY   51  28  41 SE23G29   29.93R
ELKO, NV       CLOUDY    46  41  82 W7        29.83S
POCATELLO, ID  LGT RAIN  48  39  71 S23G31    29.73R
BURLEY, ID     CLOUDY    52  38  58 S21G29    29.68F
FORT BRIDGER,    N/A     56  25  29 SW25G35   29.87F
EVANSTON, WY   CLOUDY    51  25  36 SW29G37   29.84F
ROCK SPRINGS,  CLOUDY    52  17  25 S26G35    29.84F
KEMMERER, WY   CLOUDY    46  23  39 W10       29.87S

$$




USA.gov is the U.S. government's official web portal to all federal, state and local government web resources and services.